Location: Drocourt
(49.0571°N, 1.7669°E)
Time: 22:44:13
(UTC+00:00)

SR - Pass Details

Date: 15 April 2024
Orbit: 579 x 859 km, 66.7° (Epoch: 24 May)

Event Time Altitude Azimuth Distance (km) Brightness Sun altitude
Rises 02:24:31 0° 192° (SSW) 3,371 - -22.3°
Reaches altitude 10° 02:27:08 10° 185° (S) 2,412 - -22.0°
Exits shadow 02:30:03 28° 166° (SSE) 1,468 ? -21.7°
Maximum altitude 02:32:19 42° 117° (ESE) 1,115 ? -21.4°
Drops below altitude 10° 02:37:13 10° 47° (NE) 2,268 ? -20.9°
Sets 02:39:36 0° 41° (NE) 3,148 ? -20.6°
